Regional Weather Roundup
Issued by NWS

Home | Current Version | Previous Version | Text Only | Print | Product List | Glossary On
Versions: 1 2 3 4 5 6 7 8 9 10 11 12 13 14 15 16 17 18 19 20 21 22 23 24 25 26 27 28 29 30 31 32 33 34 35 36 37 38 39 40 41 42 43 44 45 46 47 48 49 50
000
ASUS44 KLIX 232010
RWRLA
LOUISIANA WEATHER ROUNDUP
NATIONAL WEATHER SERVICE NEW ORLEANS LA
300 PM CDT THU OCT 23 2014

NOTE: "FAIR" INDICATES FEW OR NO CLOUDS BELOW 12,000 FEET WITH NO
      SIGNIFICANT WEATHER AND/OR OBSTRUCTIONS TO VISIBILITY.
      SKY/WX - SKY CONDITION AND SIGNIFICANT WEATHER.
      TMP - AIR TEMPERATURE.    DP   - DEWPOINT TEMPERATURE.
      RH  - RELATIVE HUMIDITY.  PRES - PRESSURE.
      HX  - HEAT INDEX.         WCI  - WIND CHILL INDEX.

*  THESE STATIONS ARE NOT NWS OR FAA STATIONS AND ARE NOT UNDER
   NWS QUALITY CONTROL.

LAZ040-048-061>063-065-066-069-232100-
SOUTHEAST LOUISIANA

CITY           SKY/WX    TMP DP  RH WIND       PRES   REMARKS
N.O. AUDUBON     N/A     74  50  42 MISG        N/A
N.O. INTL ARPT MOSUNNY   73  45  36 N10       30.04F
N.O. LAKEFRONT SUNNY     74  45  35 NE9       30.05F
N.O. DOWNTOWN* FAIR      73  45  35 NE8       30.05F
SLIDELL        SUNNY     75  45  34 N6        30.04F
BATON ROUGE    MOSUNNY   76  47  35 VRB3      30.05F
BOOTHVILLE     SUNNY     73  58  59 NE10      30.03F
BELLE CHASSE   MOSUNNY   74  44  34 NE10      30.04F
BOGALUSA*      FAIR      77  40  26 NE5       30.06F
NEW ROADS*     FAIR      71  48  45 NW6       30.07S
GONZALES*      FAIR      75  47  36 NE3       30.04F
HAMMOND*       SUNNY     77  39  25 N3        30.06F
HOUMA*         SUNNY     79  48  34 NE7       30.03F
PORT FOURCHON* CLEAR     73  55  53 NE13      30.06S

$$

LAZ041-044-053-054-232100-
SOUTHWEST LOUISIANA

CITY           SKY/WX    TMP DP  RH WIND       PRES   REMARKS
LAKE CHARLES   CLOUDY    74  52  46 N12       30.07F
LAFAYETTE      PTSUNNY   74  48  39 N9        30.05F
PATTERSON      MOSUNNY   75  52  43 N9        30.06F
SALT POINT       N/A     76  51  41 N5        30.03F
NEW IBERIA     MOSUNNY   77  50  38 N9        30.06F
CHENAULT AIRPK MOSUNNY   72  54  53 N9        30.08F

$$

LAZ027-028-232100-
CENTRAL LOUISIANA

CITY           SKY/WX    TMP DP  RH WIND       PRES   REMARKS
FORT POLK      PTSUNNY   70  51  51 NW5       30.08F
ALEXANDRIA INT CLOUDY    70  47  43 N9        30.08F
ALEXANDRIA     CLOUDY    67  50  54 VRB6      30.09F

$$

LAZ001-002-232100-
NORTHWEST LOUISIANA

CITY           SKY/WX    TMP DP  RH WIND       PRES   REMARKS
SHREVEPORT     MOSUNNY   70  47  43 NE3       30.12F
BARKSDALE AFB  MOSUNNY   70  47  44 VRB2      30.13F
DTN SHREVEPORT MOSUNNY   69  45  41 NW5       30.13F

$$

LAZ014-016-232100-
NORTHEAST LOUISIANA

CITY           SKY/WX    TMP DP  RH WIND       PRES   REMARKS
MONROE         CLOUDY    67  47  48 N7        30.13S
TALLULAH       CLOUDY    68  46  45 NE7       30.09F

$$




USA.gov is the U.S. government's official web portal to all federal, state and local government web resources and services.